Location: Naloco
(16.5478°S, 37.1017°E)
Time: 02:56:55
(UTC+00:00)

Helios 1A Rocket - Pass Details

Date: 13 August 2020
Orbit: 564 x 585 km, 98.3° (Epoch: 23 September)

Event Time Altitude Azimuth Distance (km) Brightness Sun altitude
Rises 15:47:23 0° 156° (SSE) 2,799 6.1 -6.6°
Reaches altitude 10° 15:49:40 10° 148° (SSE) 1,891 5.1 -7.2°
Maximum altitude 15:53:28 37° 80° (E) 893 3.4 -8.0°
Drops below altitude 10° 15:57:13 10° 11° (NNE) 1,860 5.5 -8.9°
Sets 15:59:27 0° 3° (N) 2,747 6.5 -9.4°
